"Sample Date","Sample Time","Sensor Name","Sample Value","Units","Flow Rate","Sample Interval","Sample Volume","Laser Status","Number Channels","Micron Size 0","Counts/Channel 0","Micron Size 1","Counts/Channel 1","Micron Size 2","Counts/Channel 2","Micron Size 3","Counts/Channel 3","Micron Size 4","Counts/Channel 4","Micron Size 5","Counts/Channel 5","Micron Size 6","Counts/Channel 6","Micron Size 7","Counts/Channel 7","Micron Size 8","Counts/Channel 8","Micron Size 9","Counts/Channel 9","Micron Size 10","Counts/Channel 10","Micron Size 11","Counts/Channel 11","Micron Size 12","Counts/Channel 12","Micron Size 13","Counts/Channel 13","Micron Size 14","Counts/Channel 14","Micron Size 15","Counts/Channel 15","Micron Size 16","Counts/Channel 16","Micron Size 17","Counts/Channel 17","Micron Size 18","Counts/Channel 18","Micron Size 19","Counts/Channel 19","Micron Size 20","Counts/Channel 20","Micron Size 21","Counts/Channel 21","Micron Size 22","Counts/Channel 22","Micron Size 23","Counts/Channel 23","Micron Size 24","Counts/Channel 24","Micron Size 25","Counts/Channel 25","Micron Size 26","Counts/Channel 26","Micron Size 27","Counts/Channel 27","Micron Size 28","Counts/Channel 28","Micron Size 29","Counts/Channel 29","Micron Size 30","Counts/Channel 30","Micron Size 31","Counts/Channel 31"
"07/02/06","08:00:03","AMMA06",62871.000,"cc",28338.826,6.00,2833.883,1,6,0.100,29288.000,0.200,25348.000,0.300,5573.000,0.500,1551.000,1.000,1109.000,5.000,2.000
"07/02/06","08:00:09","AMMA06",62630.000,"cc",28317.547,6.00,2831.755,1,6,0.100,29412.000,0.200,25063.000,0.300,5630.000,0.500,1498.000,1.000,1027.000,5.000,0
"07/02/06","08:00:15","AMMA06",62627.000,"cc",28296.387,6.00,2829.639,1,6,0.100,29270.000,0.200,25154.000,0.300,5648.000,0.500,1542.000,1.000,1013.000,5.000,0
"07/02/06","08:00:21","AMMA06",62674.000,"cc",28308.482,6.00,2830.848,1,6,0.100,29030.000,0.200,25547.000,0.300,5551.000,0.500,1536.000,1.000,1009.000,5.000,1.000
"07/02/06","08:00:27","AMMA06",62406.000,"cc",28291.283,6.00,2829.128,1,6,0.100,29275.000,0.200,25111.000,0.300,5419.000,0.500,1535.000,1.000,1063.000,5.000,3.000
"07/02/06","08:00:33","AMMA06",63270.000,"cc",28333.133,6.00,2833.314,1,6,0.100,29563.000,0.200,25489.000,0.300,5650.000,0.500,1543.000,1.000,1024.000,5.000,1.000
"07/02/06","08:00:39","AMMA06",63075.000,"cc",28316.348,6.00,2831.635,1,6,0.100,29206.000,0.200,25334.000,0.300,5844.000,0.500,1547.000,1.000,1142.000,5.000,2.000
"07/02/06","08:00:45","AMMA06",62481.000,"cc",28324.883,6.00,2832.489,1,6,0.100,29152.000,0.200,25138.000,0.300,5597.000,0.500,1527.000,1.000,1067.000,5.000,0
"07/02/06","08:00:51","AMMA06",62593.000,"cc",28321.928,6.00,2832.193,1,6,0.100,28980.000,0.200,25300.000,0.300,5721.000,0.500,1493.000,1.000,1098.000,5.000,1.000
"07/02/06","08:00:57","AMMA06",62655.000,"cc",28358.740,6.00,2835.874,1,6,0.100,29569.000,0.200,25076.000,0.300,5472.000,0.500,1477.000,1.000,1059.000,5.000,2.000
"07/02/06","08:01:03","AMMA06",62695.000,"cc",28319.606,6.00,2831.961,1,6,0.100,29694.000,0.200,25031.000,0.300,5469.000,0.500,1456.000,1.000,1040.000,5.000,5.000
"07/02/06","08:01:09","AMMA06",63056.000,"cc",28262.797,6.00,2826.280,1,6,0.100,29707.000,0.200,25146.000,0.300,5551.000,0.500,1535.000,1.000,1117.000,5.000,0
"07/02/06","08:01:15","AMMA06",62914.000,"cc",28327.682,6.00,2832.768,1,6,0.100,29870.000,0.200,25097.000,0.300,5379.000,0.500,1530.000,1.000,1038.000,5.000,0
"07/02/06","08:01:21","AMMA06",62035.000,"cc",28343.082,6.00,2834.308,1,6,0.100,29220.000,0.200,24793.000,0.300,5413.000,0.500,1520.000,1.000,1088.000,5.000,1.000
"07/02/06","08:01:27","AMMA06",62825.000,"cc",28286.156,6.00,2828.616,1,6,0.100,29731.000,0.200,24994.000,0.300,5536.000,0.500,1517.000,1.000,1045.000,5.000,2.000
"07/02/06","08:01:33","AMMA06",62578.000,"cc",28302.354,6.00,2830.236,1,6,0.100,29772.000,0.200,25046.000,0.300,5172.000,0.500,1516.000,1.000,1070.000,5.000,2.000
"07/02/06","08:01:39","AMMA06",62416.000,"cc",28320.643,6.00,2832.065,1,6,0.100,29462.000,0.200,25010.000,0.300,5392.000,0.500,1484.000,1.000,1067.000,5.000,1.000
"07/02/06","08:01:45","AMMA06",62528.000,"cc",28302.471,6.00,2830.247,1,6,0.100,29541.000,0.200,24978.000,0.300,5421.000,0.500,1576.000,1.000,1012.000,5.000,0
"07/02/06","08:01:51","AMMA06",63248.000,"cc",28326.156,6.00,2832.616,1,6,0.100,30063.000,0.200,25254.000,0.300,5363.000,0.500,1522.000,1.000,1045.000,5.000,1.000
"07/02/06","08:01:57","AMMA06",62919.000,"cc",28357.174,6.00,2835.718,1,6,0.100,29792.000,0.200,25063.000,0.300,5425.000,0.500,1615.000,1.000,1022.000,5.000,2.000
"07/02/06","08:02:03","AMMA06",62439.000,"cc",28355.828,6.00,2835.583,1,6,0.100,29432.000,0.200,24857.000,0.300,5546.000,0.500,1546.000,1.000,1057.000,5.000,1.000
"07/02/06","08:02:09","AMMA06",62835.000,"cc",28322.898,6.00,2832.290,1,6,0.100,29755.000,0.200,25008.000,0.300,5425.000,0.500,1531.000,1.000,1116.000,5.000,0
"07/02/06","08:02:15","AMMA06",62571.000,"cc",28292.457,6.00,2829.246,1,6,0.100,29521.000,0.200,25163.000,0.300,5403.000,0.500,1460.000,1.000,1024.000,5.000,0
"07/02/06","08:02:21","AMMA06",62618.000,"cc",28290.869,6.00,2829.087,1,6,0.100,29557.000,0.200,25305.000,0.300,5208.000,0.500,1499.000,1.000,1049.000,5.000,0
"07/02/06","08:02:27","AMMA06",62772.000,"cc",28321.586,6.00,2832.159,1,6,0.100,30033.000,0.200,24734.000,0.300,5420.000,0.500,1508.000,1.000,1075.000,5.000,2.000
"07/02/06","08:02:33","AMMA06",62990.000,"cc",28296.738,6.00,2829.674,1,6,0.100,30002.000,0.200,24972.000,0.300,5383.000,0.500,1548.000,1.000,1084.000,5.000,1.000
"07/02/06","08:02:39","AMMA06",62632.000,"cc",28286.527,6.00,2828.653,1,6,0.100,29725.000,0.200,25061.000,0.300,5328.000,0.500,1541.000,1.000,976.000,5.000,1.000
"07/02/06","08:02:45","AMMA06",63061.000,"cc",28341.367,6.00,2834.137,1,6,0.100,30447.000,0.200,24763.000,0.300,5259.000,0.500,1495.000,1.000,1094.000,5.000,3.000
"07/02/06","08:02:51","AMMA06",62424.000,"cc",28342.816,6.00,2834.282,1,6,0.100,29744.000,0.200,24689.000,0.300,5331.000,0.500,1548.000,1.000,1112.000,5.000,0
"07/02/06","08:02:57","AMMA06",62806.000,"cc",28267.148,6.00,2826.715,1,6,0.100,29938.000,0.200,25042.000,0.300,5295.000,0.500,1520.000,1.000,1011.000,5.000,0
"07/02/06","08:03:03","AMMA06",62694.000,"cc",28355.410,6.00,2835.541,1,6,0.100,29904.000,0.200,24955.000,0.300,5249.000,0.500,1549.000,1.000,1037.000,5.000,0
"07/02/06","08:03:09","AMMA06",62791.000,"cc",28315.117,6.00,2831.512,1,6,0.100,30028.000,0.200,24986.000,0.300,5178.000,0.500,1549.000,1.000,1049.000,5.000,1.000
"07/02/06","08:03:15","AMMA06",62504.000,"cc",28338.406,6.00,2833.841,1,6,0.100,29999.000,0.200,24709.000,0.300,5203.000,0.500,1544.000,1.000,1048.000,5.000,1.000
"07/02/06","08:03:21","AMMA06",62258.000,"cc",28306.676,6.00,2830.668,1,6,0.100,29865.000,0.200,24627.000,0.300,5217.000,0.500,1521.000,1.000,1026.000,5.000,2.000
"07/02/06","08:03:27","AMMA06",62579.000,"cc",28317.926,6.00,2831.793,1,6,0.100,29808.000,0.200,24936.000,0.300,5222.000,0.500,1568.000,1.000,1043.000,5.000,2.000
"07/02/06","08:03:33","AMMA06",62393.000,"cc",28332.494,6.00,2833.250,1,6,0.100,29696.000,0.200,24835.000,0.300,5249.000,0.500,1517.000,1.000,1095.000,5.000,1.000
"07/02/06","08:03:39","AMMA06",63060.000,"cc",28291.240,6.00,2829.124,1,6,0.100,30157.000,0.200,24910.000,0.300,5400.000,0.500,1538.000,1.000,1050.000,5.000,5.000
"07/02/06","08:03:45","AMMA06",63202.000,"cc",28302.465,6.00,2830.247,1,6,0.100,30187.000,0.200,25109.000,0.300,5318.000,0.500,1511.000,1.000,1072.000,5.000,5.000
"07/02/06","08:03:51","AMMA06",63087.000,"cc",28301.736,6.00,2830.174,1,6,0.100,29903.000,0.200,25197.000,0.300,5367.000,0.500,1571.000,1.000,1047.000,5.000,2.000
"07/02/06","08:03:57","AMMA06",62896.000,"cc",28316.736,6.00,2831.674,1,6,0.100,30198.000,0.200,24915.000,0.300,5278.000,0.500,1530.000,1.000,972.000,5.000,3.000
"07/02/06","08:04:03","AMMA06",62963.000,"cc",28394.734,6.00,2839.474,1,6,0.100,29755.000,0.200,25128.000,0.300,5456.000,0.500,1581.000,1.000,1043.000,5.000,0
"07/02/06","08:04:09","AMMA06",63029.000,"cc",28320.293,6.00,2832.030,1,6,0.100,29865.000,0.200,25273.000,0.300,5263.000,0.500,1573.000,1.000,1054.000,5.000,1.000
"07/02/06","08:04:15","AMMA06",62853.000,"cc",28259.080,6.00,2825.908,1,6,0.100,29827.000,0.200,25084.000,0.300,5354.000,0.500,1509.000,1.000,1077.000,5.000,2.000
"07/02/06","08:04:21","AMMA06",63158.000,"cc",28353.445,6.00,2835.345,1,6,0.100,29800.000,0.200,25303.000,0.300,5467.000,0.500,1542.000,1.000,1045.000,5.000,1.000
"07/02/06","08:04:27","AMMA06",62341.000,"cc",28332.252,6.00,2833.225,1,6,0.100,29435.000,0.200,24933.000,0.300,5327.000,0.500,1564.000,1.000,1080.000,5.000,2.000
"07/02/06","08:04:33","AMMA06",63544.000,"cc",28320.574,6.00,2832.058,1,6,0.100,30133.000,0.200,25318.000,0.300,5470.000,0.500,1560.000,1.000,1063.000,5.000,0
"07/02/06","08:04:39","AMMA06",62511.000,"cc",28294.811,6.00,2829.481,1,6,0.100,29647.000,0.200,24932.000,0.300,5321.000,0.500,1504.000,1.000,1106.000,5.000,1.000
"07/02/06","08:04:45","AMMA06",62820.000,"cc",28312.645,6.00,2831.265,1,6,0.100,29655.000,0.200,25089.000,0.300,5498.000,0.500,1561.000,1.000,1014.000,5.000,3.000
"07/02/06","08:04:51","AMMA06",62928.000,"cc",28251.436,6.00,2825.144,1,6,0.100,29724.000,0.200,25074.000,0.300,5432.000,0.500,1617.000,1.000,1080.000,5.000,1.000
"07/02/06","08:04:57","AMMA06",62745.000,"cc",28378.434,6.00,2837.844,1,6,0.100,29543.000,0.200,25189.000,0.300,5383.000,0.500,1560.000,1.000,1070.000,5.000,0
"07/02/06","08:05:03","AMMA06",62780.000,"cc",28355.029,6.00,2835.503,1,6,0.100,29490.000,0.200,25274.000,0.300,5367.000,0.500,1554.000,1.000,1094.000,5.000,1.000
"07/02/06","08:05:09","AMMA06",62702.000,"cc",28294.945,6.00,2829.495,1,6,0.100,29715.000,0.200,24923.000,0.300,5519.000,0.500,1485.000,1.000,1059.000,5.000,1.000
"07/02/06","08:05:15","AMMA06",63147.000,"cc",28323.359,6.00,2832.336,1,6,0.100,29689.000,0.200,25381.000,0.300,5459.000,0.500,1535.000,1.000,1082.000,5.000,1.000
"07/02/06","08:05:21","AMMA06",62833.000,"cc",28298.453,6.00,2829.846,1,6,0.100,29425.000,0.200,25161.000,0.300,5671.000,0.500,1527.000,1.000,1049.000,5.000,0
"07/02/06","08:05:27","AMMA06",63389.000,"cc",28306.756,6.00,2830.676,1,6,0.100,29795.000,0.200,25488.000,0.300,5468.000,0.500,1563.000,1.000,1074.000,5.000,1.000
"07/02/06","08:05:33","AMMA06",62891.000,"cc",28317.154,6.00,2831.716,1,6,0.100,29486.000,0.200,25134.000,0.300,5702.000,0.500,1494.000,1.000,1074.000,5.000,1.000
"07/02/06","08:05:39","AMMA06",62659.000,"cc",28351.482,6.00,2835.148,1,6,0.100,29226.000,0.200,25276.000,0.300,5587.000,0.500,1521.000,1.000,1049.000,5.000,0
"07/02/06","08:05:45","AMMA06",63066.000,"cc",28303.385,6.00,2830.339,1,6,0.100,29846.000,0.200,25094.000,0.300,5618.000,0.500,1457.000,1.000,1049.000,5.000,2.000
"07/02/06","08:05:51","AMMA06",63240.000,"cc",28336.305,6.00,2833.631,1,6,0.100,29612.000,0.200,25389.000,0.300,5651.000,0.500,1494.000,1.000,1094.000,5.000,0
"07/02/06","08:05:57","AMMA06",63122.000,"cc",28281.768,6.00,2828.177,1,6,0.100,29561.000,0.200,25411.000,0.300,5561.000,0.500,1462.000,1.000,1125.000,5.000,2.000
"07/02/06","08:06:03","AMMA06",62992.000,"cc",28309.951,6.00,2830.995,1,6,0.100,29491.000,0.200,25469.000,0.300,5522.000,0.500,1414.000,1.000,1093.000,5.000,3.000
"07/02/06","08:06:09","AMMA06",63240.000,"cc",28313.795,6.00,2831.380,1,6,0.100,29647.000,0.200,25487.000,0.300,5522.000,0.500,1506.000,1.000,1077.000,5.000,1.000
"07/02/06","08:06:15","AMMA06",63513.000,"cc",28336.289,6.00,2833.629,1,6,0.100,29913.000,0.200,25296.000,0.300,5698.000,0.500,1492.000,1.000,1111.000,5.000,3.000
"07/02/06","08:06:21","AMMA06",63143.000,"cc",28318.133,6.00,2831.814,1,6,0.100,29332.000,0.200,25509.000,0.300,5682.000,0.500,1567.000,1.000,1053.000,5.000,0
"07/02/06","08:06:27","AMMA06",63154.000,"cc",28279.266,6.00,2827.927,1,6,0.100,29586.000,0.200,25361.000,0.300,5623.000,0.500,1563.000,1.000,1021.000,5.000,0
"07/02/06","08:06:33","AMMA06",63011.000,"cc",28310.883,6.00,2831.088,1,6,0.100,29541.000,0.200,25239.000,0.300,5625.000,0.500,1530.000,1.000,1076.000,5.000,0
"07/02/06","08:06:39","AMMA06",63046.000,"cc",28296.815,6.00,2829.682,1,6,0.100,29533.000,0.200,25322.000,0.300,5525.000,0.500,1530.000,1.000,1134.000,5.000,2.000
"07/02/06","08:06:45","AMMA06",62991.000,"cc",28385.270,6.00,2838.527,1,6,0.100,29169.000,0.200,25623.000,0.300,5589.000,0.500,1528.000,1.000,1081.000,5.000,1.000
"07/02/06","08:06:51","AMMA06",63232.000,"cc",28336.695,6.00,2833.670,1,6,0.100,29336.000,0.200,25657.000,0.300,5595.000,0.500,1501.000,1.000,1140.000,5.000,3.000
"07/02/06","08:06:57","AMMA06",63530.000,"cc",28305.346,6.00,2830.535,1,6,0.100,29651.000,0.200,25659.000,0.300,5599.000,0.500,1551.000,1.000,1070.000,5.000,0
"07/02/06","08:07:03","AMMA06",63071.000,"cc",28284.121,6.00,2828.412,1,6,0.100,29583.000,0.200,25306.000,0.300,5503.000,0.500,1577.000,1.000,1101.000,5.000,1.000
"07/02/06","08:07:09","AMMA06",63210.000,"cc",28341.777,6.00,2834.178,1,6,0.100,29616.000,0.200,25449.000,0.300,5601.000,0.500,1478.000,1.000,1066.000,5.000,0
"07/02/06","08:07:15","AMMA06",63130.000,"cc",28293.426,6.00,2829.343,1,6,0.100,29273.000,0.200,25511.000,0.300,5613.000,0.500,1624.000,1.000,1107.000,5.000,2.000
"07/02/06","08:07:21","AMMA06",63494.000,"cc",28318.104,6.00,2831.811,1,6,0.100,29798.000,0.200,25528.000,0.300,5594.000,0.500,1478.000,1.000,1096.000,5.000,0
"07/02/06","08:07:27","AMMA06",63277.000,"cc",28315.270,6.00,2831.527,1,6,0.100,29680.000,0.200,25365.000,0.300,5677.000,0.500,1526.000,1.000,1029.000,5.000,0
"07/02/06","08:07:33","AMMA06",62756.000,"cc",28365.459,6.00,2836.546,1,6,0.100,29641.000,0.200,24958.000,0.300,5543.000,0.500,1576.000,1.000,1038.000,5.000,0
"07/02/06","08:07:39","AMMA06",62970.000,"cc",28322.383,6.00,2832.239,1,6,0.100,29500.000,0.200,25236.000,0.300,5666.000,0.500,1546.000,1.000,1021.000,5.000,1.000
"07/02/06","08:07:45","AMMA06",63333.000,"cc",28255.268,6.00,2825.527,1,6,0.100,29434.000,0.200,25656.000,0.300,5627.000,0.500,1560.000,1.000,1056.000,5.000,0
"07/02/06","08:07:51","AMMA06",63079.000,"cc",28329.772,6.00,2832.977,1,6,0.100,29580.000,0.200,25409.000,0.300,5541.000,0.500,1521.000,1.000,1028.000,5.000,0
"07/02/06","08:07:57","AMMA06",63378.000,"cc",28308.305,6.00,2830.831,1,6,0.100,29674.000,0.200,25522.000,0.300,5558.000,0.500,1580.000,1.000,1043.000,5.000,1.000
"07/02/06","08:08:03","AMMA06",63186.000,"cc",28342.354,6.00,2834.236,1,6,0.100,29619.000,0.200,25439.000,0.300,5561.000,0.500,1555.000,1.000,1009.000,5.000,3.000
"07/02/06","08:08:09","AMMA06",63221.000,"cc",28324.664,6.00,2832.467,1,6,0.100,29586.000,0.200,25475.000,0.300,5594.000,0.500,1523.000,1.000,1041.000,5.000,2.000
"07/02/06","08:08:15","AMMA06",62771.000,"cc",28285.650,6.00,2828.565,1,6,0.100,29258.000,0.200,25449.000,0.300,5545.000,0.500,1472.000,1.000,1044.000,5.000,3.000
"07/02/06","08:08:21","AMMA06",63245.000,"cc",28292.598,6.00,2829.260,1,6,0.100,29886.000,0.200,25224.000,0.300,5552.000,0.500,1523.000,1.000,1060.000,5.000,0
"07/02/06","08:08:27","AMMA06",63041.000,"cc",28325.254,6.00,2832.526,1,6,0.100,29569.000,0.200,25425.000,0.300,5438.000,0.500,1549.000,1.000,1059.000,5.000,1.000
"07/02/06","08:08:33","AMMA06",63058.000,"cc",28354.850,6.00,2835.485,1,6,0.100,29827.000,0.200,25166.000,0.300,5447.000,0.500,1511.000,1.000,1107.000,5.000,0
"07/02/06","08:08:39","AMMA06",62856.000,"cc",28256.539,6.00,2825.654,1,6,0.100,29531.000,0.200,25253.000,0.300,5453.000,0.500,1574.000,1.000,1044.000,5.000,1.000
"07/02/06","08:08:45","AMMA06",62885.000,"cc",28330.232,6.00,2833.023,1,6,0.100,29678.000,0.200,25261.000,0.300,5357.000,0.500,1537.000,1.000,1050.000,5.000,2.000
"07/02/06","08:08:51","AMMA06",63092.000,"cc",28320.029,6.00,2832.003,1,6,0.100,29947.000,0.200,25178.000,0.300,5341.000,0.500,1593.000,1.000,1031.000,5.000,2.000
"07/02/06","08:08:57","AMMA06",62921.000,"cc",28308.356,6.00,2830.836,1,6,0.100,29900.000,0.200,25038.000,0.300,5425.000,0.500,1541.000,1.000,1015.000,5.000,2.000
"07/02/06","08:09:03","AMMA06",62937.000,"cc",28395.897,6.00,2839.590,1,6,0.100,29943.000,0.200,25251.000,0.300,5267.000,0.500,1444.000,1.000,1028.000,5.000,4.000
"07/02/06","08:09:09","AMMA06",62685.000,"cc",28284.266,6.00,2828.427,1,6,0.100,29906.000,0.200,24830.000,0.300,5369.000,0.500,1541.000,1.000,1037.000,5.000,2.000
"07/02/06","08:09:15","AMMA06",62806.000,"cc",28303.203,6.00,2830.321,1,6,0.100,29858.000,0.200,24980.000,0.300,5352.000,0.500,1552.000,1.000,1064.000,5.000,0
"07/02/06","08:09:21","AMMA06",63563.000,"cc",28280.865,6.00,2828.087,1,6,0.100,30328.000,0.200,25215.000,0.300,5394.000,0.500,1597.000,1.000,1029.000,5.000,0
"07/02/06","08:09:27","AMMA06",63008.000,"cc",28347.869,6.00,2834.787,1,6,0.100,30013.000,0.200,25074.000,0.300,5438.000,0.500,1477.000,1.000,1005.000,5.000,1.000
"07/02/06","08:09:33","AMMA06",62987.000,"cc",28355.986,6.00,2835.599,1,6,0.100,29775.000,0.200,25452.000,0.300,5183.000,0.500,1532.000,1.000,1045.000,5.000,0
"07/02/06","08:09:39","AMMA06",63036.000,"cc",28300.223,6.00,2830.023,1,6,0.100,30091.000,0.200,24857.000,0.300,5531.000,0.500,1541.000,1.000,1015.000,5.000,1.000
"07/02/06","08:09:45","AMMA06",63117.000,"cc",28297.555,6.00,2829.756,1,6,0.100,30067.000,0.200,25094.000,0.300,5290.000,0.500,1563.000,1.000,1102.000,5.000,1.000
"07/02/06","08:09:51","AMMA06",63014.000,"cc",28305.830,6.00,2830.583,1,6,0.100,29952.000,0.200,25182.000,0.300,5304.000,0.500,1512.000,1.000,1064.000,5.000,0
"07/02/06","08:09:57","AMMA06",62705.000,"cc",28321.762,6.00,2832.176,1,6,0.100,29919.000,0.200,24912.000,0.300,5295.000,0.500,1524.000,1.000,1055.000,5.000,0
"07/02/06","08:10:03","AMMA06",62124.000,"cc",28313.522,6.00,2831.352,1,6,0.100,29413.000,0.200,24945.000,0.300,5306.000,0.500,1429.000,1.000,1029.000,5.000,2.000
"07/02/06","08:10:09","AMMA06",63049.000,"cc",28321.688,6.00,2832.169,1,6,0.100,29989.000,0.200,25039.000,0.300,5313.000,0.500,1630.000,1.000,1077.000,5.000,1.000
"07/02/06","08:10:15","AMMA06",62546.000,"cc",28328.691,6.00,2832.869,1,6,0.100,29639.000,0.200,25010.000,0.300,5405.000,0.500,1509.000,1.000,983.000,5.000,0
"07/02/06","08:10:21","AMMA06",62997.000,"cc",28284.131,6.00,2828.413,1,6,0.100,29970.000,0.200,25066.000,0.300,5442.000,0.500,1489.000,1.000,1028.000,5.000,2.000
"07/02/06","08:10:27","AMMA06",63134.000,"cc",28323.522,6.00,2832.352,1,6,0.100,30194.000,0.200,24956.000,0.300,5333.000,0.500,1588.000,1.000,1062.000,5.000,1.000
"07/02/06","08:10:33","AMMA06",63306.000,"cc",28351.031,6.00,2835.103,1,6,0.100,30485.000,0.200,25046.000,0.300,5183.000,0.500,1517.000,1.000,1073.000,5.000,2.000
"07/02/06","08:10:39","AMMA06",63479.000,"cc",28337.920,6.00,2833.792,1,6,0.100,30066.000,0.200,25375.000,0.300,5391.000,0.500,1569.000,1.000,1077.000,5.000,1.000
"07/02/06","08:10:45","AMMA06",62652.000,"cc",28313.578,6.00,2831.358,1,6,0.100,29878.000,0.200,24921.000,0.300,5224.000,0.500,1561.000,1.000,1065.000,5.000,3.000
"07/02/06","08:10:51","AMMA06",62784.000,"cc",28311.777,6.00,2831.178,1,6,0.100,29724.000,0.200,25162.000,0.300,5335.000,0.500,1545.000,1.000,1018.000,5.000,0
"07/02/06","08:10:57","AMMA06",63017.000,"cc",28319.115,6.00,2831.912,1,6,0.100,29824.000,0.200,25313.000,0.300,5240.000,0.500,1592.000,1.000,1048.000,5.000,0
"07/02/06","08:11:03","AMMA06",63015.000,"cc",28340.650,6.00,2834.065,1,6,0.100,29640.000,0.200,25306.000,0.300,5510.000,0.500,1519.000,1.000,1039.000,5.000,1.000
"07/02/06","08:11:09","AMMA06",62867.000,"cc",28307.670,6.00,2830.767,1,6,0.100,29602.000,0.200,25214.000,0.300,5441.000,0.500,1562.000,1.000,1047.000,5.000,1.000
"07/02/06","08:11:15","AMMA06",62578.000,"cc",28279.998,6.00,2828.000,1,6,0.100,29436.000,0.200,25253.000,0.300,5379.000,0.500,1498.000,1.000,1011.000,5.000,1.000
"07/02/06","08:11:21","AMMA06",63259.000,"cc",28306.191,6.00,2830.619,1,6,0.100,30023.000,0.200,25170.000,0.300,5442.000,0.500,1554.000,1.000,1069.000,5.000,1.000
"07/02/06","08:11:27","AMMA06",62636.000,"cc",28299.287,6.00,2829.929,1,6,0.100,29671.000,0.200,24963.000,0.300,5444.000,0.500,1561.000,1.000,997.000,5.000,0
"07/02/06","08:11:33","AMMA06",63080.000,"cc",28343.826,6.00,2834.383,1,6,0.100,29682.000,0.200,25346.000,0.300,5394.000,0.500,1594.000,1.000,1062.000,5.000,2.000
"07/02/06","08:11:39","AMMA06",63537.000,"cc",28308.824,6.00,2830.883,1,6,0.100,29755.000,0.200,25512.000,0.300,5631.000,0.500,1599.000,1.000,1039.000,5.000,1.000
"07/02/06","08:11:45","AMMA06",63335.000,"cc",28309.662,6.00,2830.966,1,6,0.100,29837.000,0.200,25319.000,0.300,5590.000,0.500,1489.000,1.000,1097.000,5.000,3.000
"07/02/06","08:11:51","AMMA06",63309.000,"cc",28356.947,6.00,2835.695,1,6,0.100,29719.000,0.200,25624.000,0.300,5446.000,0.500,1465.000,1.000,1051.000,5.000,4.000
"07/02/06","08:11:57","AMMA06",62627.000,"cc",28353.846,6.00,2835.385,1,6,0.100,29511.000,0.200,25031.000,0.300,5583.000,0.500,1464.000,1.000,1038.000,5.000,0
"07/02/06","08:12:03","AMMA06",62949.000,"cc",28331.572,6.00,2833.158,1,6,0.100,29456.000,0.200,25362.000,0.300,5595.000,0.500,1429.000,1.000,1107.000,5.000,0
"07/02/06","08:12:09","AMMA06",63277.000,"cc",28296.645,6.00,2829.665,1,6,0.100,29557.000,0.200,25421.000,0.300,5657.000,0.500,1530.000,1.000,1112.000,5.000,0
"07/02/06","08:12:15","AMMA06",63014.000,"cc",28314.285,6.00,2831.429,1,6,0.100,29573.000,0.200,25059.000,0.300,5687.000,0.500,1613.000,1.000,1079.000,5.000,3.000
"07/02/06","08:12:21","AMMA06",63314.000,"cc",28323.367,6.00,2832.337,1,6,0.100,29546.000,0.200,25463.000,0.300,5662.000,0.500,1529.000,1.000,1113.000,5.000,1.000
"07/02/06","08:12:27","AMMA06",62639.000,"cc",28326.305,6.00,2832.631,1,6,0.100,29286.000,0.200,25254.000,0.300,5534.000,0.500,1547.000,1.000,1016.000,5.000,2.000
"07/02/06","08:12:33","AMMA06",62865.000,"cc",28302.514,6.00,2830.252,1,6,0.100,29372.000,0.200,25417.000,0.300,5484.000,0.500,1537.000,1.000,1055.000,5.000,0
"07/02/06","08:12:39","AMMA06",62788.000,"cc",28321.162,6.00,2832.117,1,6,0.100,29421.000,0.200,25260.000,0.300,5626.000,0.500,1474.000,1.000,1007.000,5.000,0
"07/02/06","08:12:45","AMMA06",62958.000,"cc",28341.072,6.00,2834.107,1,6,0.100,29142.000,0.200,25628.000,0.300,5654.000,0.500,1455.000,1.000,1079.000,5.000,0
"07/02/06","08:12:51","AMMA06",62538.000,"cc",28312.344,6.00,2831.235,1,6,0.100,29011.000,0.200,25315.000,0.300,5546.000,0.500,1594.000,1.000,1070.000,5.000,2.000
"07/02/06","08:12:57","AMMA06",62995.000,"cc",28277.432,6.00,2827.743,1,6,0.100,29311.000,0.200,25397.000,0.300,5690.000,0.500,1508.000,1.000,1087.000,5.000,2.000
"07/02/06","08:13:03","AMMA06",63330.000,"cc",28322.811,6.00,2832.281,1,6,0.100,29425.000,0.200,25554.000,0.300,5684.000,0.500,1532.000,1.000,1134.000,5.000,1.000
"07/02/06","08:13:09","AMMA06",63126.000,"cc",28285.404,6.00,2828.541,1,6,0.100,29342.000,0.200,25529.000,0.300,5672.000,0.500,1492.000,1.000,1090.000,5.000,1.000
"07/02/06","08:13:15","AMMA06",63206.000,"cc",28295.352,6.00,2829.535,1,6,0.100,29548.000,0.200,25427.000,0.300,5722.000,0.500,1448.000,1.000,1060.000,5.000,1.000
"07/02/06","08:13:21","AMMA06",63094.000,"cc",28385.381,6.00,2838.538,1,6,0.100,29258.000,0.200,25488.000,0.300,5756.000,0.500,1543.000,1.000,1047.000,5.000,2.000
"07/02/06","08:13:27","AMMA06",63078.000,"cc",28346.668,6.00,2834.667,1,6,0.100,29365.000,0.200,25404.000,0.300,5706.000,0.500,1530.000,1.000,1072.000,5.000,1.000
"07/02/06","08:13:33","AMMA06",62656.000,"cc",28278.242,6.00,2827.825,1,6,0.100,29233.000,0.200,25224.000,0.300,5590.000,0.500,1507.000,1.000,1102.000,5.000,0
"07/02/06","08:13:39","AMMA06",62899.000,"cc",28323.447,6.00,2832.345,1,6,0.100,29395.000,0.200,25381.000,0.300,5594.000,0.500,1462.000,1.000,1067.000,5.000,0
"07/02/06","08:13:45","AMMA06",62776.000,"cc",28313.242,6.00,2831.325,1,6,0.100,29242.000,0.200,25313.000,0.300,5664.000,0.500,1534.000,1.000,1023.000,5.000,0
"07/02/06","08:13:51","AMMA06",62908.000,"cc",28296.434,6.00,2829.644,1,6,0.100,29541.000,0.200,25201.000,0.300,5517.000,0.500,1558.000,1.000,1091.000,5.000,0